Regional Weather Roundup
Issued by NWS

Home | Current Version | Previous Version | Graphics & Text | Print | Product List | Glossary On
Versions: 1 2 3 4 5 6 7 8 9 10 11 12 13 14 15 16 17 18 19 20 21 22 23 24 25 26 27 28 29 30 31 32 33 34 35 36 37 38 39 40 41 42 43 44 45 46 47 48 49 50
000
ASUS44 KMEG 260310
RWRTN
TENNESSEE HOURLY STATE WEATHER ROUNDUP
NATIONAL WEATHER SERVICE MEMPHIS TN
900 PM CST SUN JAN 25 2015

TNZ002-004-019-021-049-052-054-088>092-260400-
WEST TENNESSEE

CITY           SKY/WX    TMP DP  RH WIND       PRES   REMARKS
MEMPHIS INTL   CLOUDY    45  35  68 NW17G24   29.88R
NWS MEMPHIS      N/A     44 N/A N/A MISG        N/A
JACKSON        CLOUDY    44  37  76 W13       29.82R
DYERSBURG      CLOUDY    43  28  56 NW13G23   29.86R
UNION CITY     CLOUDY    41  41 100 NW14      29.79R
PARIS          CLOUDY    41  39  93 W10       29.76S
LEXINGTON      CLOUDY    43  41  93 W7        29.77R
SAVANNAH       MOCLDY    43  43 100 W7        29.80S
$$

TNZ008-025-027-028-033-062-065-066-260400-
NORTH MIDDLE TENNESSEE

CITY           SKY/WX    TMP DP  RH WIND       PRES   REMARKS
NASHVILLE      LGT RAIN  47  42  83 W13G21    29.71S
CLARKSVILLE    LGT RAIN  44  42  93 W12       29.71S
SMYRNA         CLOUDY    47  42  82 W10       29.72F
COOKEVILLE     CLOUDY    45  43  93 SW6       29.69F
CROSSVILLE     MOCLDY    43  39  86 SW5       29.69F
$$

TNZ061-075-076-078-094-096-097-260400-
SOUTH MIDDLE TENNESSEE

CITY           SKY/WX    TMP DP  RH WIND       PRES   REMARKS
FAYETTEVILLE   CLOUDY    43  39  87 MISG      29.74S
TULLAHOMA      PTCLDY    39  37  93 SW3       29.73R
WINCHESTER     CLOUDY    43  41  93 CALM      29.74S
MCMINNVILLE    CLOUDY    43  43 100 CALM      29.71F
COLUMBIA       CLOUDY    45  45 100 W5        29.73S
SHELBYVILLE    MOCLDY    45  43  93 W7        29.74S
$$

TNZ017-018-042-046-047-260400-
NORTHEAST TENNESSEE

CITY           SKY/WX    TMP DP  RH WIND       PRES   REMARKS
TRI CITIES     CLOUDY    45  34  65 CALM      29.70F
ELIZABETHTON   MOCLDY    45  30  57 SE5       29.71F
$$

TNZ012-013-036-069-073-074-260400-
CENTRAL EAST TENNESSEE

CITY           SKY/WX    TMP DP  RH WIND       PRES   REMARKS
KNOXVILLE      LGT RAIN  48  36  63 S7        29.68F
OAK RIDGE      LGT RAIN  49  38  65 S12G18    29.70F
GATLINBURG     MOCLDY    46  34  61 S5        29.68F
MORRISTOWN     PTCLDY    46  36  66 CALM      29.69F
$$

TNZ083-085-099-260400-
SOUTHEAST TENNESSEE

CITY           SKY/WX    TMP DP  RH WIND       PRES   REMARKS
CHATTANOOGA    CLOUDY    50  39  66 SE5       29.71F
$$

SKY/WX REPORTED AS FAIR MEANS FEW OR NO CLOUDS BELOW
12 THOUSAND FEET.



USA.gov is the U.S. government's official web portal to all federal, state and local government web resources and services.